When you browse on this site, cookies collect data to enhance your experience and personalize the content and advertising you see.
Visit our Privacy Policy to learn more. By continuing to use the site, you agree to this use of cookies and data.
  • In Slovakia
  • List of Countries
  • For 7 days
  • Water Temperature
  • Satellite Maps
  • Weather Map
  • Weather Widgets
  • user-avatar
    Login

    Hourly Weather Byala

    Today, 24 March, Sunday

    Time Temperature Precipitation Wind Pressure Humidity
    00:00 +8°C° 0 mm 1 mps 757 mmHg 61%
    01:00 +7°C° 0 mm 1 mps 757 mmHg 63%
    02:00 +6°C° 0 mm 1 mps 757 mmHg 65%
    03:00 +6°C° 0 mm 1 mps 757 mmHg 66%
    04:00 +5°C° 0 mm 2 mps 757 mmHg 67%
    05:00 +4°C° 0 mm 2 mps 757 mmHg 67%
    06:00 +4°C° 0 mm 3 mps 757 mmHg 62%
    07:00 +5°C° 0 mm 3 mps 757 mmHg 56%
    08:00 +7°C° 0 mm 3 mps 757 mmHg 49%
    09:00 +8°C° 0 mm 3 mps 757 mmHg 45%
    10:00 +8°C° 0 mm 4 mps 757 mmHg 41%
    11:00 +11°C° 0 mm 4 mps 757 mmHg 36%
    12:00 +11°C° 0 mm 3 mps 756 mmHg 36%
    13:00 +12°C° 0 mm 3 mps 756 mmHg 36%
    14:00 +12°C° 0 mm 3 mps 756 mmHg 35%
    15:00 +11°C° 0 mm 3 mps 755 mmHg 40%
    16:00 +11°C° 0 mm 3 mps 755 mmHg 45%
    17:00 +10°C° 0 mm 4 mps 755 mmHg 50%
    18:00 +9°C° 0 mm 3 mps 755 mmHg 55%
    19:00 +8°C° 0 mm 3 mps 755 mmHg 60%
    20:00 +6°C° 0 mm 2 mps 755 mmHg 64%
    21:00 +6°C° 0 mm 2 mps 755 mmHg 65%
    22:00 +6°C° 0 mm 2 mps 755 mmHg 66%
    23:00 +6°C° 0 mm 2 mps 755 mmHg 67%

    Tomorrow, 25 March, Monday

    Time Temperature Precipitation Wind Pressure Humidity
    00:00 +6°C° 0 mm 2 mps 754 mmHg 68%
    01:00 +5°C° 0 mm 2 mps 754 mmHg 68%
    02:00 +4°C° 0 mm 3 mps 754 mmHg 69%
    03:00 +4°C° 0 mm 3 mps 753 mmHg 68%
    04:00 +4°C° 0 mm 3 mps 753 mmHg 67%
    05:00 +4°C° 0 mm 3 mps 753 mmHg 66%
    06:00 +5°C° 0 mm 3 mps 752 mmHg 62%
    07:00 +7°C° 0 mm 3 mps 752 mmHg 59%
    08:00 +8°C° 0 mm 3 mps 752 mmHg 55%
    09:00 +10°C° 0 mm 3 mps 752 mmHg 49%
    10:00 +12°C° 0 mm 4 mps 751 mmHg 44%
    11:00 +14°C° 0 mm 4 mps 751 mmHg 39%
    12:00 +15°C° 0 mm 5 mps 750 mmHg 39%
    13:00 +16°C° 0 mm 5 mps 750 mmHg 39%
    14:00 +16°C° 0 mm 6 mps 750 mmHg 39%
    15:00 +15°C° 0 mm 6 mps 749 mmHg 42%
    16:00 +15°C° 0 mm 6 mps 749 mmHg 46%
    17:00 +14°C° 0 mm 5 mps 748 mmHg 50%
    18:00 +12°C° 0 mm 5 mps 748 mmHg 55%
    19:00 +10°C° 0 mm 5 mps 748 mmHg 61%
    20:00 +9°C° 0 mm 5 mps 748 mmHg 67%
    21:00 +8°C° 0 mm 4 mps 748 mmHg 69%
    22:00 +8°C° 0 mm 4 mps 748 mmHg 72%
    23:00 +8°C° 0 mm 4 mps 748 mmHg 74%

    Day after tomorrow, 26 March, Tuesday

    Time Temperature Precipitation Wind Pressure Humidity
    00:00 +8°C° 0 mm 4 mps 748 mmHg 75%
    01:00 +7°C° 0 mm 4 mps 748 mmHg 75%
    02:00 +7°C° 0 mm 4 mps 748 mmHg 76%
    03:00 +8°C° 0 mm 3 mps 747 mmHg 76%
    04:00 +7°C° 0 mm 3 mps 747 mmHg 76%
    05:00 +7°C° 0 mm 2 mps 747 mmHg 76%
    06:00 +8°C° 0 mm 2 mps 748 mmHg 72%
    07:00 +9°C° 0 mm 2 mps 748 mmHg 67%
    08:00 +10°C° 0 mm 2 mps 748 mmHg 63%
    09:00 +13°C° 0 mm 2 mps 748 mmHg 56%
    10:00 +15°C° 0 mm 1 mps 749 mmHg 49%
    11:00 +18°C° 0 mm 1 mps 749 mmHg 42%
    12:00 +19°C° 0 mm 1 mps 749 mmHg 42%
    13:00 +19°C° 0 mm 2 mps 749 mmHg 42%
    14:00 +19°C° 0 mm 2 mps 749 mmHg 42%
    15:00 +18°C° 0.1 mm 3 mps 749 mmHg 48%
    16:00 +17°C° 0.1 mm 4 mps 750 mmHg 54%
    17:00 +14°C° 0.1 mm 5 mps 750 mmHg 60%
    18:00 +13°C° 0 mm 5 mps 751 mmHg 65%
    19:00 +11°C° 0 mm 6 mps 752 mmHg 71%
    20:00 +9°C° 0 mm 7 mps 752 mmHg 77%
    21:00 +9°C° 0.1 mm 6 mps 753 mmHg 77%
    22:00 +9°C° 0.1 mm 6 mps 753 mmHg 78%
    23:00 +8°C° 0.1 mm 5 mps 754 mmHg 79%

    27 March, Wednesday

    Time Temperature Precipitation Wind Pressure Humidity
    00:00 +8°C° 0.1 mm 5 mps 754 mmHg 78%
    01:00 +8°C° 0.1 mm 5 mps 754 mmHg 78%
    02:00 +8°C° 0.1 mm 4 mps 754 mmHg 78%
    03:00 +7°C° 0 mm 4 mps 754 mmHg 79%
    04:00 +7°C° 0 mm 4 mps 754 mmHg 80%
    05:00 +7°C° 0 mm 4 mps 755 mmHg 80%
    06:00 +7°C° 0 mm 4 mps 755 mmHg 76%
    07:00 +7°C° 0 mm 4 mps 756 mmHg 72%
    08:00 +8°C° 0 mm 4 mps 756 mmHg 67%
    09:00 +10°C° 0 mm 4 mps 756 mmHg 60%
    10:00 +11°C° 0 mm 4 mps 757 mmHg 52%
    11:00 +13°C° 0 mm 4 mps 757 mmHg 44%
    12:00 +13°C° 0 mm 4 mps 757 mmHg 43%
    13:00 +13°C° 0 mm 4 mps 757 mmHg 43%
    14:00 +13°C° 0 mm 4 mps 757 mmHg 42%
    15:00 +12°C° 0 mm 4 mps 757 mmHg 47%
    16:00 +12°C° 0 mm 5 mps 758 mmHg 51%
    17:00 +10°C° 0 mm 5 mps 758 mmHg 55%
    18:00 +9°C° 0 mm 5 mps 758 mmHg 58%
    19:00 +8°C° 0 mm 5 mps 759 mmHg 62%
    20:00 +7°C° 0 mm 5 mps 759 mmHg 65%
    21:00 +7°C° 0 mm 5 mps 759 mmHg 67%
    22:00 +6°C° 0 mm 4 mps 760 mmHg 69%
    23:00 +6°C° 0 mm 4 mps 760 mmHg 71%

    28 March, Thursday

    Time Temperature Precipitation Wind Pressure Humidity
    00:00 +6°C° 0 mm 5 mps 760 mmHg 70%
    01:00 +6°C° 0 mm 5 mps 761 mmHg 68%
    02:00 +6°C° 0 mm 5 mps 761 mmHg 67%
    03:00 +5°C° 0 mm 5 mps 761 mmHg 65%
    04:00 +5°C° 0 mm 5 mps 761 mmHg 64%
    05:00 +3°C° 0 mm 5 mps 761 mmHg 62%
    06:00 +5°C° 0 mm 5 mps 761 mmHg 60%
    07:00 +6°C° 0 mm 5 mps 761 mmHg 58%
    08:00 +5°C° 0 mm 6 mps 762 mmHg 55%
    09:00 +7°C° 0 mm 6 mps 762 mmHg 52%
    10:00 +8°C° 0 mm 6 mps 762 mmHg 49%
    11:00 +9°C° 0 mm 6 mps 762 mmHg 46%
    12:00 +9°C° 0 mm 6 mps 762 mmHg 46%
    13:00 +9°C° 0 mm 7 mps 762 mmHg 46%
    14:00 +9°C° 0 mm 7 mps 761 mmHg 45%
    15:00 +8°C° 0 mm 7 mps 761 mmHg 48%
    16:00 +6°C° 0 mm 7 mps 761 mmHg 50%
    17:00 +6°C° 0 mm 7 mps 761 mmHg 52%
    18:00 +5°C° 0 mm 7 mps 761 mmHg 55%
    19:00 +4°C° 0 mm 7 mps 762 mmHg 57%
    20:00 +3°C° 0 mm 7 mps 762 mmHg 60%
    21:00 +3°C° 0 mm 7 mps 762 mmHg 61%
    22:00 +3°C° 0 mm 7 mps 762 mmHg 62%
    23:00 +3°C° 0 mm 7 mps 762 mmHg 62%

    29 March, Friday

    Time Temperature Precipitation Wind Pressure Humidity
    00:00 +2°C° 0 mm 7 mps 762 mmHg 60%
    01:00 +2°C° 0 mm 7 mps 762 mmHg 58%
    02:00 +2°C° 0 mm 7 mps 762 mmHg 56%
    03:00 +2°C° 0 mm 7 mps 762 mmHg 58%
    04:00 0°C° 0 mm 7 mps 762 mmHg 61%
    05:00 0°C° 0 mm 7 mps 762 mmHg 63%
    06:00 +1°C° 0 mm 8 mps 762 mmHg 60%
    07:00 +2°C° 0 mm 8 mps 762 mmHg 58%
    08:00 +4°C° 0 mm 8 mps 762 mmHg 55%
    09:00 +4°C° 0 mm 8 mps 762 mmHg 53%
    10:00 +5°C° 0 mm 9 mps 762 mmHg 51%
    11:00 +6°C° 0 mm 9 mps 762 mmHg 49%
    12:00 +6°C° 0 mm 9 mps 762 mmHg 49%
    13:00 +6°C° 0 mm 9 mps 761 mmHg 48%
    14:00 +6°C° 0 mm 9 mps 761 mmHg 48%
    15:00 +6°C° 0 mm 9 mps 761 mmHg 50%
    16:00 +5°C° 0 mm 9 mps 760 mmHg 51%
    17:00 +5°C° 0 mm 9 mps 760 mmHg 52%
    18:00 +3°C° 0 mm 9 mps 760 mmHg 56%
    19:00 +2°C° 0 mm 8 mps 760 mmHg 60%
    20:00 +2°C° 0 mm 7 mps 761 mmHg 65%
    21:00 +2°C° 0 mm 7 mps 760 mmHg 66%
    22:00 +2°C° 0 mm 7 mps 760 mmHg 66%
    23:00 +1°C° 0 mm 6 mps 760 mmHg 67%
    Show more